Location: Elliott Corner
(37.4627°N, 119.7746°W)
Time: 22:18:27
(UTC+00:00)

Cosmos 1850 Rocket - Pass Details

Date: 10 September 2024
Orbit: 751 x 783 km, 74.0° (Epoch: 13 October)

Event Time Altitude Azimuth Distance (km) Brightness Sun altitude
Rises 12:40:58 0° 193° (SSW) 3,210 6.9 -11.8°
Reaches altitude 10° 12:43:19 10° 192° (SSW) 2,293 6.2 -11.4°
Maximum altitude 12:48:31 78° 107° (ESE) 790 4.2 -10.4°
Drops below altitude 10° 12:53:48 10° 21° (NNE) 2,329 7.0 -9.4°
Sets 12:56:12 0° 20° (NNE) 3,265 7.8 -8.9°
